Beatrice, NE

10:06 PM CST on December 06, 2019 (GMT -0600)
Beatrice Municipal

Weather History for KBIE - October, 2019

Change the Weather History Date:

Friday, October 11, 2019

  Actual Average Record
Temperature  
Mean Temperature 38 °F -  
Max Temperature 46 °F 72 °F 89 °F (2015)
Min Temperature 30 °F 46 °F 29 °F (2014)
Degree Days  
Heating Degree Days 26    
Moisture  
Dew Point 26 °F    
Average Humidity 62    
Maximum Humidity 83    
Minimum Humidity 40    
Precipitation  
Precipitation 0.00 in - - ()
Sea Level Pressure  
Sea Level Pressure 30.17 in    
Wind  
Wind Speed 16 mph (WNW)    
Max Wind Speed 24 mph    
Max Gust Speed 32 mph    
Visibility 10 miles    
Events      
Averages and records for this station are not official NWS values.
T = Trace of Precipitation, MM = Missing Value Source: NWS Daily Summary

Daily Weather History Graph

Daily Weather History Graph

Search for Another Location

Airport or City:

Astronomy

Oct. 11, 2019 Rise Set
Actual Time 7:33 AM CDT 6:53 PM CDT
Civil Twilight 7:06 AM CDT 7:20 PM CDT
Nautical Twilight 6:34 AM CDT 7:52 PM CDT
Astronomical Twilight 6:02 AM CDT 8:23 PM CDT
Moon 6:23 PM CDT (10/11) 5:14 AM CDT (10/11)
Length of Visible Light 12h 14m
Length of Day
11h 20m
Waxing Gibbous, 96% of the Moon is Illuminated
Oct 11
Waxing Gibbous
Oct 13
Full
Oct 21
Last Quarter
Oct 27
New
Nov 4
First Quarter

Hourly Weather History & Observations

Time (CDT) Temp. Windchill Dew Point Humidity Pressure Visibility Wind Dir Wind Speed Gust Speed Precip Events Conditions
12:15 AM 37.6 °F 28.1 °F 31.3 °F 78% 30.11 in 10.0 mi NW 17.3 mph 26.5 mph N/A   Overcast
12:35 AM 37.6 °F 27.4 °F 31.1 °F 77% 30.10 in 10.0 mi NW 19.6 mph 28.8 mph N/A   Overcast
12:55 AM 37.4 °F 26.9 °F 30.7 °F 77% 30.09 in 10.0 mi NW 20.7 mph 26.5 mph N/A   Overcast
1:15 AM 37.4 °F 27.2 °F 30.4 °F 76% 30.11 in 10.0 mi NW 19.6 mph 27.6 mph N/A   Overcast
1:35 AM 37.0 °F 27.4 °F 29.8 °F 75% 30.12 in 10.0 mi NW 17.3 mph 26.5 mph N/A   Overcast
1:55 AM 37.2 °F 27.9 °F 29.5 °F 74% 30.12 in 10.0 mi NW 16.1 mph 28.8 mph N/A   Overcast
2:15 AM 37.0 °F 27.7 °F 30.0 °F 76% 30.12 in 10.0 mi NW 16.1 mph 24.2 mph N/A   Overcast
2:35 AM 36.9 °F 27.1 °F 29.3 °F 74% 30.13 in 10.0 mi NW 17.3 mph 25.3 mph N/A   Overcast
2:50 AM 36.9 °F 27.5 °F 29.3 °F 74% 30.13 in 10.0 mi NW 16.1 mph 23.0 mph N/A   Overcast
3:15 AM 36.9 °F 27.8 °F 28.9 °F 73% 30.14 in 10.0 mi NW 15.0 mph 26.5 mph N/A   Overcast
3:35 AM 36.7 °F 26.3 °F 28.8 °F 73% 30.13 in 10.0 mi NW 19.6 mph 24.2 mph N/A   Overcast
3:55 AM 36.7 °F 27.6 °F 29.1 °F 74% 30.15 in 10.0 mi WNW 15.0 mph 23.0 mph N/A   Overcast
4:15 AM 36.7 °F 27.6 °F 28.4 °F 72% 30.15 in 10.0 mi NW 15.0 mph 24.2 mph N/A   Overcast
4:35 AM 36.5 °F 28.2 °F 27.9 °F 71% 30.15 in 10.0 mi WNW 12.7 mph 19.6 mph N/A   Overcast
4:55 AM 36.7 °F 28.0 °F 27.7 °F 70% 30.15 in 10.0 mi NW 13.8 mph 23.0 mph N/A   Overcast
5:15 AM 36.7 °F 27.2 °F 27.1 °F 68% 30.15 in 10.0 mi NW 16.1 mph 27.6 mph N/A   Overcast
5:35 AM 36.7 °F 27.2 °F 28.0 °F 71% 30.15 in 10.0 mi WNW 16.1 mph - N/A   Overcast
5:55 AM 36.5 °F 28.2 °F 28.6 °F 73% 30.16 in 10.0 mi WNW 12.7 mph - N/A   Overcast
6:15 AM 36.5 °F 27.8 °F 27.7 °F 70% 30.17 in 10.0 mi WNW 13.8 mph 18.4 mph N/A   Overcast
6:35 AM 36.5 °F 26.3 °F 26.6 °F 67% 30.17 in 10.0 mi NW 18.4 mph 28.8 mph N/A   Overcast
6:55 AM 36.0 °F 27.1 °F 26.8 °F 69% 30.17 in 10.0 mi NW 13.8 mph 21.9 mph N/A   Overcast
7:15 AM 36.0 °F 27.1 °F 27.5 °F 71% 30.17 in 10.0 mi NW 13.8 mph - N/A   Overcast
7:35 AM 36.0 °F 26.0 °F 26.8 °F 69% 30.17 in 10.0 mi NW 17.3 mph 23.0 mph N/A   Overcast
7:55 AM 35.8 °F 26.5 °F 25.3 °F 66% 30.18 in 10.0 mi NW 15.0 mph 27.6 mph N/A   Overcast
8:15 AM 35.8 °F 26.9 °F 26.4 °F 69% 30.19 in 10.0 mi WNW 13.8 mph 19.6 mph N/A   Overcast
8:35 AM 36.0 °F 25.6 °F 26.1 °F 67% 30.20 in 10.0 mi WNW 18.4 mph 25.3 mph N/A   Overcast
8:55 AM 36.1 °F 25.5 °F 24.6 °F 63% 30.20 in 10.0 mi WNW 19.6 mph 25.3 mph N/A   Overcast
9:15 AM 36.5 °F 27.4 °F 24.6 °F 62% 30.20 in 10.0 mi WNW 15.0 mph 31.1 mph N/A   Overcast
9:35 AM 37.8 °F 29.0 °F 24.6 °F 59% 30.21 in 10.0 mi WNW 15.0 mph 27.6 mph N/A   Mostly Cloudy
9:55 AM 37.6 °F 26.3 °F 24.4 °F 59% 30.21 in 10.0 mi WNW 24.2 mph 31.1 mph N/A   Mostly Cloudy
10:15 AM 38.5 °F 29.2 °F 24.8 °F 58% 30.22 in 10.0 mi WNW 17.3 mph 26.5 mph N/A   Scattered Clouds
10:35 AM 38.7 °F 29.5 °F 24.6 °F 57% 30.21 in 10.0 mi WNW 17.3 mph 27.6 mph N/A   Scattered Clouds
10:55 AM 39.4 °F 29.2 °F 24.6 °F 56% 30.22 in 10.0 mi WNW 21.9 mph 26.5 mph N/A   Scattered Clouds
11:15 AM 39.6 °F 29.7 °F 25.0 °F 56% 30.22 in 10.0 mi WNW 20.7 mph 25.3 mph N/A   Scattered Clouds
11:35 AM 40.6 °F 33.0 °F 25.2 °F 54% 30.22 in 10.0 mi WNW 13.8 mph 24.2 mph N/A   Scattered Clouds
11:55 AM 40.5 °F 30.9 °F 23.5 °F 51% 30.21 in 10.0 mi NW 20.7 mph 25.3 mph N/A   Mostly Cloudy
12:15 PM 41.7 °F 32.9 °F 23.7 °F 49% 30.22 in 10.0 mi West 19.6 mph 26.5 mph N/A   Scattered Clouds
12:35 PM 43.2 °F 34.0 °F 23.9 °F 47% 30.21 in 10.0 mi WNW 23.0 mph 28.8 mph N/A   Mostly Cloudy
12:55 PM 42.6 °F 34.0 °F 23.5 °F 47% 30.20 in 10.0 mi WNW 19.6 mph 26.5 mph N/A   Scattered Clouds
1:15 PM 42.6 °F 33.8 °F 23.0 °F 46% 30.20 in 10.0 mi WNW 20.7 mph 28.8 mph N/A   Scattered Clouds
1:35 PM 44.8 °F 36.9 °F 23.9 °F 44% 30.20 in 10.0 mi WNW 19.6 mph 26.5 mph N/A   Scattered Clouds
1:55 PM 44.8 °F 36.6 °F 23.7 °F 44% 30.19 in 10.0 mi WNW 20.7 mph 28.8 mph N/A   Mostly Cloudy
2:15 PM 45.5 °F 37.8 °F 22.5 °F 40% 30.19 in 10.0 mi West 19.6 mph 29.9 mph N/A   Mostly Cloudy
2:35 PM 44.1 °F 36.5 °F 21.9 °F 42% 30.19 in 10.0 mi WNW 17.3 mph 26.5 mph N/A   Mostly Cloudy
2:55 PM 45.3 °F 37.3 °F 22.3 °F 40% 30.18 in 10.0 mi West 20.7 mph 27.6 mph N/A   Scattered Clouds
3:15 PM 45.9 °F 38.0 °F 23.5 °F 41% 30.18 in 10.0 mi West 20.7 mph 25.3 mph N/A   Mostly Cloudy
3:35 PM 46.4 °F 38.5 °F 23.4 °F 40% 30.18 in 10.0 mi NW 21.9 mph 26.5 mph N/A   Mostly Cloudy
3:55 PM 46.6 °F - 24.1 °F 41% 30.18 in 10.0 mi WNW 18.4 mph 24.2 mph N/A   Scattered Clouds
4:15 PM 44.6 °F 37.4 °F 22.5 °F 42% 30.18 in 10.0 mi WNW 16.1 mph 23.0 mph N/A   Scattered Clouds
4:35 PM 44.6 °F 36.6 °F 22.3 °F 41% 30.18 in 10.0 mi WNW 19.6 mph 32.2 mph N/A   Scattered Clouds
4:55 PM 44.1 °F 37.7 °F 23.4 °F 44% 30.18 in 10.0 mi WNW 12.7 mph 23.0 mph N/A   Scattered Clouds
5:15 PM 45.0 °F 37.9 °F 22.6 °F 41% 30.18 in 10.0 mi WNW 16.1 mph 26.5 mph N/A   Scattered Clouds
5:35 PM 45.5 °F 39.9 °F 22.8 °F 41% 30.17 in 10.0 mi WNW 11.5 mph 21.9 mph N/A   Scattered Clouds
5:55 PM 44.6 °F 37.8 °F 22.1 °F 41% 30.17 in 10.0 mi WNW 15.0 mph 26.5 mph N/A   Scattered Clouds
6:15 PM 44.2 °F 36.7 °F 21.9 °F 41% 30.17 in 10.0 mi West 17.3 mph - N/A   Clear
6:35 PM 43.2 °F 36.6 °F 23.0 °F 45% 30.17 in 10.0 mi West 12.7 mph 17.3 mph N/A   Clear
6:55 PM 41.5 °F 35.4 °F 23.7 °F 49% 30.17 in 10.0 mi West 10.4 mph - N/A   Clear
7:15 PM 40.3 °F 34.9 °F 24.4 °F 53% 30.17 in 10.0 mi West 8.1 mph - N/A   Clear
7:35 PM 38.7 °F 34.3 °F 25.5 °F 59% 30.18 in 10.0 mi West 5.8 mph - N/A   Clear
7:55 PM 37.0 °F 32.4 °F 26.2 °F 65% 30.17 in 10.0 mi West 5.8 mph - N/A   Clear
8:15 PM 36.1 °F 32.3 °F 26.6 °F 68% 30.17 in 10.0 mi West 4.6 mph - N/A   Clear
8:35 PM 35.1 °F 30.1 °F 27.1 °F 73% 30.17 in 10.0 mi West 5.8 mph - N/A   Clear
8:55 PM 34.5 °F 28.6 °F 27.1 °F 74% 30.17 in 10.0 mi West 6.9 mph - N/A   Clear
9:15 PM 34.2 °F 30.0 °F 26.6 °F 74% 30.17 in 10.0 mi West 4.6 mph - N/A   Clear
9:35 PM 33.8 °F 30.8 °F 26.6 °F 75% 30.17 in 10.0 mi West 3.5 mph - N/A   Clear
9:55 PM 33.8 °F 29.6 °F 26.6 °F 75% 30.17 in 10.0 mi West 4.6 mph - N/A   Clear
10:15 PM 32.0 °F 26.4 °F 26.4 °F 80% 30.17 in 10.0 mi WSW 5.8 mph - N/A   Clear
10:35 PM 32.0 °F 26.4 °F 26.6 °F 80% 30.17 in 10.0 mi WSW 5.8 mph - N/A   Clear
10:55 PM 31.8 °F 27.3 °F 26.6 °F 81% 30.17 in 10.0 mi SW 4.6 mph - N/A   Clear
11:15 PM 31.1 °F 25.4 °F 26.2 °F 82% 30.16 in 10.0 mi SSW 5.8 mph - N/A   Clear
11:35 PM 31.1 °F 25.4 °F 26.4 °F 83% 30.15 in 10.0 mi SW 5.8 mph - N/A   Clear
11:55 PM 30.9 °F 25.2 °F 26.4 °F 83% 30.15 in 10.0 mi SW 5.8 mph - N/A   Clear